Location: Unspecified
(34.4950°S, 58.5160°W)
Time: 04:36:29
(UTC+00:00)

Timation 1 Rocket - Pass Details

Date: 04 December 2021
Orbit: 900 x 906 km, 70.0° (Epoch: 23 January)

Event Time Altitude Azimuth Distance (km) Brightness Sun altitude
Rises 23:15:04 0° 200° (SSW) 3,561 8.3 -4.5°
Reaches altitude 10° 23:17:37 10° 196° (SSW) 2,614 7.5 -4.9°
Maximum altitude 23:23:38 65° 114° (ESE) 1,001 4.5 -6.0°
Drops below altitude 10° 23:29:35 10° 32° (NNE) 2,587 6.2 -7.0°
Enters shadow 23:30:46 - 30° (NNE) 3,024 6.5 -7.2°
